Theta_e
293 293 292 291 291 290 289 288 288 287 286 286 285 284 283 282 282 281 281 280 280 280 280 280 279 279 278 277 278 277 277 276 273 275 276 277 276 276 277 278 278 278 278
292 291 291 290 290 289 288 287 287 286 286 285 285 284 282 281 281 280 279 280 279 279 279 279 278 280 277 277 277 276 276 275 274 273 275 275 275 276 276 276 278 278 277
291 291 290 289 289 288 286 286 286 285 284 284 283 282 281 280 279 280 279 279 278 278 278 278 278 278 277 276 276 275 275 276 275 274 274 276 275 276 276 276 275 275 276
289 289 288 288 287 286 286 285 284 284 282 282 281 280 280 279 279 279 279 278 278 278 279 278 278 277 276 276 276 275 276 275 275 274 274 274 274 276 275 273 272 274 273
288 288 286 286 286 285 284 284 283 282 281 280 280 279 279 279 279 279 279 278 278 277 278 278 278 277 280 280 278 276 275 274 274 274 274 273 273 273 272 273 272 272 272
287 286 285 285 284 283 283 282 281 281 280 280 279 279 278 279 282 284 282 278 278 278 277 277 277 277 278 281 281 281 280 276 275 274 274 273 272 273 273 272 270 268 265
285 284 284 283 283 282 282 281 280 280 279 278 278 278 277 277 282 284 284 281 279 278 277 277 277 278 277 276 278 280 279 280 280 278 274 273 273 273 271 269 268 267 266
283 283 283 282 282 281 281 280 280 279 278 278 277 277 277 278 282 284 284 280 279 278 277 277 276 276 276 276 276 275 276 276 276 276 277 274 274 273 270 269 268 265 266
283 282 282 282 281 280 280 279 278 278 278 278 278 278 277 277 282 284 283 280 279 277 278 276 276 275 277 279 277 276 275 275 278 278 276 275 274 273 271 267 262 261 259
282 282 282 281 282 281 280 279 278 278 279 278 278 278 277 277 281 283 283 280 278 277 276 276 278 276 279 280 276 275 274 274 271 269 267 267 267 267 269 266 264 259 258
282 281 281 281 281 280 278 275 275 275 276 274 276 277 277 277 277 282 284 280 278 277 276 275 276 279 279 280 280 275 275 270 266 263 261 262 263 264 265 265 264 262 258
281 280 280 278 279 277 275 273 272 272 271 271 270 273 275 276 278 280 283 283 282 278 276 275 275 279 279 280 275 277 276 269 262 259 259 261 262 262 262 262 262 262 262
279 279 277 274 275 276 274 272 270 269 271 272 273 273 274 274 274 280 282 283 283 280 276 277 278 279 278 273 274 273 267 263 260 256 257 260 261 261 261 260 260 260 259
278 276 274 274 273 272 274 274 274 273 272 273 272 273 272 270 271 272 273 273 276 278 278 273 274 276 274 271 267 265 264 263 261 259 258 259 259 257 256 258 255 256 254
275 274 275 275 275 274 274 274 275 274 275 272 272 272 269 270 270 276 274 270 269 272 266 264 264 264 265 265 262 259 260 260 257 257 255 255 256 256 255 256 254 252 248
276 276 276 275 273 273 271 271 278 280 281 281 282 277 273 278 280 281 281 281 279 279 267 264 263 265 265 264 260 258 258 257 256 255 252 253 253 253 253 253 253 248 250
278 275 273 272 271 269 267 269 271 272 281 283 284 284 284 284 283 283 282 282 281 281 275 265 264 264 265 263 259 258 257 258 254 251 251 251 251 250 248 250 251 251 251
271 272 273 272 271 269 269 270 268 268 269 269 276 279 281 283 284 284 284 283 274 268 262 262 262 263 262 258 257 255 254 251 249 249 248 247 244 244 245 248 249 249 250
270 269 268 266 267 269 267 266 267 267 270 269 266 272 271 277 280 282 282 275 269 263 261 259 258 258 256 255 254 251 249 247 247 245 244 243 243 241 246 247 248 250 250
268 268 268 267 265 265 266 268 267 268 269 269 268 267 264 264 265 266 263 261 260 260 258 258 256 253 253 253 250 246 244 243 243 243 244 242 242 241 245 247 249 249 251
269 267 267 264 267 268 269 270 270 269 269 270 271 267 273 267 268 267 265 260 261 258 258 258 254 253 252 248 244 243 243 246 244 244 243 241 241 243 245 247 249 250 251
269 267 264 268 266 267 268 269 269 268 269 270 270 265 275 273 267 265 262 261 257 257 258 256 255 253 251 249 247 245 245 246 245 243 243 243 243 244 246 247 250 251 253
266 265 265 263 266 266 267 267 268 269 270 270 269 268 267 268 269 266 262 258 257 257 255 254 253 248 244 245 245 248 248 248 248 243 244 244 245 247 247 249 252 253 254
265 267 268 267 265 267 268 268 269 270 270 269 268 268 267 267 266 264 261 257 257 257 255 253 252 253 249 247 245 245 245 246 242 244 243 243 246 248 250 252 254 255 256
267 267 268 268 269 270 271 271 271 271 270 269 269 268 267 265 262 259 259 259 258 256 254 252 252 252 253 252 248 246 246 251 250 246 243 243 247 248 251 253 254 255 255
264 267 267 269 270 271 271 271 271 270 270 270 269 268 266 263 261 259 260 259 258 256 255 254 253 253 253 252 252 252 253 256 254 251 249 250 251 253 255 257 258 260 263
Wind_Speed
14 10 11 7 7 9 10 8 10 8 7 7 6 6 5 5 5 5 5 5 5 4 2 1 1 2 3 2 0 1 3 3 4 5 2 5 7 6 9 8 9 8 8
16 14 12 10 5 8 9 8 8 8 6 7 6 5 5 5 5 5 4 4 4 3 1 1 5 2 3 2 2 3 3 2 3 9 8 6 8 8 9 8 7 8 9
15 14 12 9 7 7 8 8 8 8 6 6 6 6 6 5 5 4 4 5 3 3 3 4 4 3 3 3 2 3 2 4 4 5 8 6 5 6 8 7 9 9 9
14 13 11 8 7 7 8 7 7 6 6 6 5 5 5 5 5 5 5 3 3 4 4 3 3 4 5 5 4 4 5 4 4 6 7 7 6 8 6 9 11 8 10
13 11 11 9 8 7 7 7 6 6 5 5 5 5 5 4 4 4 3 4 4 4 3 3 4 5 8 8 4 4 4 3 4 5 6 7 8 8 9 9 10 11 11
9 9 10 10 9 7 7 7 6 6 5 5 5 5 5 3 7 8 7 5 4 4 3 4 4 5 7 11 11 12 9 3 5 5 6 7 9 8 7 7 10 11 12
9 8 9 9 9 8 7 6 6 6 5 6 5 5 5 4 8 10 9 4 5 4 4 4 4 4 4 5 8 10 10 12 12 8 7 7 6 6 9 11 10 10 11
9 10 9 9 8 7 7 7 6 5 6 5 5 5 4 5 10 10 9 5 4 5 5 5 5 5 4 5 5 6 6 6 5 4 4 3 6 9 8 9 10 11 9
9 9 10 9 8 8 8 7 5 5 4 5 4 6 6 6 10 10 7 4 5 5 6 5 5 6 6 9 5 5 4 4 5 8 8 13 15 15 13 6 6 8 11
10 10 8 8 8 9 8 7 4 4 5 4 5 6 6 6 7 8 7 2 5 4 4 5 10 6 9 10 4 3 2 3 2 4 6 8 8 7 11 4 5 7 7
7 7 7 7 9 8 6 4 4 3 3 3 4 5 5 5 5 9 12 6 5 4 4 4 4 7 9 9 10 3 4 6 3 0 2 2 3 3 3 5 7 7 7
8 8 7 7 5 4 6 4 3 4 2 3 3 4 3 5 8 12 15 16 12 5 4 4 4 9 9 7 3 7 8 5 2 2 2 3 4 4 5 5 7 7 8
8 8 6 4 4 5 5 4 1 3 4 3 3 4 5 3 4 12 13 14 14 7 3 6 8 8 2 3 4 6 5 2 1 1 2 3 4 6 8 6 6 7 9
8 7 6 6 5 4 2 3 4 4 4 4 4 6 5 2 3 3 4 3 7 6 7 2 3 3 4 4 3 3 0 1 1 1 1 3 5 4 5 4 4 6 6
5 5 6 5 6 5 5 6 6 5 5 4 5 4 3 4 3 5 4 3 3 5 4 2 1 1 1 0 1 1 0 1 0 1 1 3 5 5 5 3 4 4 3
6 5 5 5 5 3 2 2 9 13 11 14 14 8 3 10 8 8 7 7 9 12 2 3 3 3 3 2 2 2 2 3 2 1 1 3 5 4 5 5 5 3 7
7 6 4 4 4 4 3 4 4 3 9 11 14 15 15 13 13 14 13 11 12 14 5 3 3 4 3 3 3 3 2 2 1 1 2 3 4 4 3 6 6 6 8
5 6 6 5 4 4 4 4 3 3 2 3 4 6 8 11 14 14 15 14 2 1 2 3 4 3 3 3 3 3 2 1 1 1 3 4 3 2 3 6 7 7 8
4 3 3 3 3 3 3 3 3 2 4 4 2 4 3 6 8 11 14 3 4 3 3 2 2 3 3 3 3 2 3 2 2 2 3 3 2 1 5 5 7 11 10
4 6 5 4 3 3 3 3 3 4 4 4 4 3 1 1 1 2 1 2 2 2 3 3 3 2 3 3 3 3 2 1 2 3 4 3 3 3 5 7 7 8 10
3 4 5 3 3 4 4 6 4 4 5 4 4 3 8 4 4 4 4 4 4 3 4 4 3 3 3 3 3 3 3 3 4 4 4 3 3 4 4 6 8 9 10
4 2 3 5 3 4 4 4 4 4 4 4 3 3 10 4 5 5 4 4 4 4 4 4 4 4 5 5 5 4 4 5 4 4 4 4 3 4 5 6 8 9 10
4 4 4 4 5 4 4 4 4 4 4 4 3 3 3 5 5 6 5 4 4 4 4 4 4 3 3 4 4 4 5 6 5 4 4 4 4 6 5 8 9 10 10
5 6 6 4 3 4 4 4 5 6 5 4 4 5 5 6 6 6 5 4 4 4 3 4 4 5 4 4 3 4 5 5 3 5 6 4 6 7 7 9 11 13 12
4 4 4 5 5 5 5 5 5 5 5 5 5 5 5 5 4 4 4 4 4 4 4 4 4 5 6 7 6 8 8 10 8 6 4 5 9 11 10 10 12 12 14
4 5 4 3 4 4 4 4 5 5 5 6 5 5 5 5 5 4 4 4 4 4 5 4 5 7 7 6 7 8 9 11 10 10 7 6 8 9 9 12 17 12 16
Wind_Direction
116 111 112 122 120 125 121 118 133 145 148 138 147 132 140 147 147 130 132 128 116 119 113 143 270 233 247 281 295 221 229 204 262 291 289 302 296 296 301 295 289 293 304
117 118 113 103 116 114 122 142 141 139 149 138 145 150 158 158 155 146 149 140 155 164 181 229 253 251 292 284 260 258 250 243 252 286 297 305 300 300 291 288 296 309 310
118 116 117 131 140 152 140 142 148 143 139 143 158 165 169 168 159 167 165 177 169 183 215 233 269 281 285 273 279 287 279 287 271 275 291 291 291 305 308 308 312 306 299
121 123 130 144 149 157 148 144 143 138 147 161 174 179 165 165 178 186 185 184 193 210 228 250 270 273 273 283 279 261 267 258 261 272 286 300 314 314 312 315 312 310 309
119 142 144 145 154 150 140 148 136 148 167 167 169 166 165 180 200 195 200 214 211 230 253 266 267 268 274 268 267 260 245 246 260 276 297 308 314 317 317 320 308 316 307
138 160 148 147 150 156 152 147 147 166 171 176 180 180 189 204 217 221 210 211 210 224 254 261 272 276 280 279 276 289 285 264 301 301 295 304 303 311 317 325 313 318 314
148 149 151 153 157 161 152 148 169 181 172 189 184 194 214 220 231 234 237 211 216 222 229 246 262 249 254 264 282 288 289 291 291 301 301 291 309 335 324 319 311 303 300
154 155 154 159 160 151 155 178 180 175 186 189 205 210 221 232 233 238 241 231 224 221 220 226 248 255 245 260 252 254 257 259 265 276 303 346 323 328 326 313 321 309 298
165 165 169 165 156 157 182 191 181 169 184 199 201 210 216 233 236 241 244 225 240 226 220 215 240 260 280 286 271 271 276 281 315 332 344 336 332 332 326 339 323 325 315
179 175 162 160 169 180 189 184 172 178 197 184 216 218 221 239 248 257 261 234 247 235 216 215 234 238 266 285 277 259 286 286 50 348 332 331 336 323 337 331 320 312 311
143 143 153 166 182 186 174 153 159 176 190 206 222 238 236 233 248 258 255 244 234 240 208 202 207 253 271 287 291 145 256 109 13 336 285 296 294 286 302 310 313 305 294
147 155 166 180 182 154 158 168 167 152 179 233 243 269 239 242 237 254 253 249 247 229 212 195 205 245 271 296 78 328 7 47 54 10 333 317 318 311 306 306 297 288 280
146 169 171 147 155 166 171 165 125 166 197 217 228 251 260 229 244 257 259 257 251 249 167 203 212 259 298 63 9 10 64 54 22 2 301 307 311 306 304 295 284 287 283
165 167 156 163 178 183 133 162 186 193 196 211 226 251 254 219 235 242 246 252 272 258 202 181 199 204 122 101 53 54 108 160 208 247 264 308 302 293 284 294 300 315 306
144 156 178 180 181 183 201 191 204 217 184 191 222 211 223 274 237 236 220 235 219 202 115 74 100 128 181 177 220 246 303 40 239 259 298 294 284 283 291 306 293 305 251
166 175 187 181 190 188 175 272 245 238 233 244 248 224 207 234 246 249 255 251 220 219 106 172 203 194 204 198 213 238 233 219 224 210 261 266 275 289 301 303 286 253 282
188 180 163 172 181 169 185 202 249 323 250 254 254 250 250 250 236 238 224 229 231 222 212 184 195 193 197 195 190 199 228 210 150 217 266 269 272 283 299 302 296 287 291
183 171 180 187 181 181 193 207 180 194 238 286 286 263 262 265 261 250 234 233 192 46 147 172 195 191 197 176 178 203 221 219 249 228 256 257 260 257 307 298 293 287 292
167 183 166 159 176 188 164 177 189 181 225 229 261 273 298 279 268 265 253 196 183 190 187 182 177 181 171 170 194 200 190 205 221 243 251 249 260 230 287 272 278 286 284
193 176 177 181 181 181 189 196 200 218 226 229 227 233 198 84 224 236 239 161 188 194 165 176 186 159 179 189 189 183 177 250 249 240 249 245 243 217 264 280 282 287 292
178 185 184 159 192 193 200 215 211 209 224 229 239 199 223 206 224 215 215 210 205 192 182 178 176 184 190 182 177 170 193 242 238 246 253 258 247 282 244 261 275 277 278
186 167 152 203 181 205 208 202 212 213 213 233 243 236 252 222 210 220 220 219 198 198 184 165 179 187 186 187 185 178 207 239 244 241 252 254 251 256 262 274 281 280 282
173 171 194 203 201 188 204 200 203 215 227 225 223 220 212 233 221 215 211 204 191 192 179 168 164 188 199 199 182 182 203 229 230 205 247 264 269 273 260 279 285 289 289
181 201 211 203 175 204 210 211 213 221 225 222 215 223 227 222 222 218 203 183 187 185 169 174 189 191 186 200 200 212 227 245 215 226 219 238 268 278 275 278 282 284 283
192 197 202 208 208 213 214 221 220 219 222 223 234 226 229 218 209 206 193 180 173 169 188 196 200 202 209 216 218 228 232 250 242 210 204 218 254 265 268 275 281 286 284
186 199 203 183 205 208 214 215 228 222 227 228 228 227 219 213 211 193 184 176 177 180 195 201 204 209 222 232 239 243 242 246 241 223 211 224 252 268 269 275 284 287 295